Hourly Weather Roundup
Issued by NWS Central Illinois

Home | Current Version | Previous Version | Text Only | Print | Product List | Glossary On
Versions: 1 2 3 4 5 6 7 8 9 10 11 12 13 14 15 16 17 18 19 20 21 22 23 24 25 26 27 28 29 30 31 32 33 34 35 36 37 38 39 40 41 42 43 44 45 46 47 48 49 50
000
NZUS43 KILX 300710
HWRILX

AREA WEATHER ROUNDUP
NATIONAL WEATHER SERVICE, LINCOLN IL
200 AM CDT MON MAR 30 2015


CITY           SKY/WX    TMP DP  RH WIND       PRES   REMARKS
BLOOMINGTON    CLEAR     41  32  70 W9        30.05R
CHAMPAIGN      CLEAR     40  37  89 W6        30.04R
DECATUR        CLEAR     45  33  63 NW9       30.07R
EFFINGHAM      CLEAR     41  35  78 W7        30.09R
FLORA          CLEAR     48  40  72 W10       30.08S
GALESBURG      CLEAR     36  29  78 W7        30.06R WCI  30
JACKSONVILLE   CLEAR     39  31  73 NW5       30.10R
LACON          CLEAR     37  28  69 SW3       30.03S
LAWRENCEVILLE  CLEAR     47  41  80 W8        30.05F
LITCHFIELD     CLEAR     43  34  71 NW9       30.10R
$$


CITY           SKY/WX    TMP DP  RH WIND       PRES   REMARKS
LINCOLN        CLEAR     42  32  67 CALM      30.07R
MACOMB         CLEAR     35  29  78 W10       30.10S WCI  28
MATTOON        CLEAR     39  35  86 W8        30.06R WCI  33
MT CARMEL AP   CLEAR     46  41  81 W10       30.06S
OLNEY-NOBLE AP CLEAR     45  39  81 W8        30.07S
PARIS          CLEAR     37  36  96 W7        30.05S WCI  32
PEORIA         CLEAR     44  29  55 W7        30.06R
PONTIAC        CLEAR     37  32  82 W9        30.02R WCI  31
RANTOUL        CLEAR     34  33  96 SW7       30.02S WCI  28
ROBINSON       CLEAR     46  40  82 W12       30.06S
SPRINGFIELD    CLEAR     43  32  65 NW7       30.09R
TAYLORVILLE    CLEAR     39  34  81 W7        30.09R WCI  34
$$

...REGIONAL REPORTS...


CITY           SKY/WX    TMP DP  RH WIND       PRES   REMARKS
CHICAGO O`HARE PTCLDY    38  30  73 NW6       29.95R WCI  33
KANKAKEE       MOCLDY    37  32  85 W8        30.00R WCI  30
MOLINE         CLEAR     43  30  60 W9        30.04R
MOUNT VERNON   CLEAR     46  39  76 W5        30.10R
PITTSFIELD     CLEAR     44  35  72 W5        30.12R
QUINCY         CLEAR     44  33  65 W5        30.11R
ROCKFORD       PTCLDY    39  28  64 NW10      29.99R WCI  32
$$


CITY           SKY/WX    TMP DP  RH WIND       PRES   REMARKS
BURLINGTON     CLEAR     42  28  57 W5        30.08R
CEDAR RAPIDS   CLEAR     35  28  75 W8        30.05R WCI  29
DES MOINES     CLEAR     43  23  45 W3        30.10S
KIRKSVILLE     CLEAR     37  29  72 W5        30.13R WCI  33
OTTUMWA        CLEAR     35  23  61 W6        30.09S WCI  30
ST LOUIS       CLEAR     46  37  71 W7        30.12R
$$


CITY           SKY/WX    TMP DP  RH WIND       PRES   REMARKS
TERRE HAUTE    CLEAR     43  38  82 NW5       30.04S
EVANSVILLE     CLEAR     54  43  66 VRB7      30.06F
INDIANAPOLIS   MOCLDY    43  35  73 W7        30.00S
LAFAYETTE      PTCLDY    38  32  79 W6        29.99F WCI  33
MADISON        CLEAR     37  28  70 W6        29.94R WCI  32
MILWAUKEE      MOCLDY    40  31  70 SW5       29.92R
$$





USA.gov is the U.S. government's official web portal to all federal, state and local government web resources and services.